This is the latest recevied weather packets stored in our database for station/object KB0Y. If no packets are shown the sender has not sent any weather packets the latest 10 day(s).
| Time | Temp. | Humidity | Pressure | Rain* | Wind** | Luminosity | Snow |
|---|---|---|---|---|---|---|---|
| 1778076260 | 23.89° C | 86% | 1020.6 hPa | 0 mm | - | 346 W/m² | - |
| 1778075957 | 23.33° C | 86% | 1020.6 hPa | 0 mm | - | 358 W/m² | - |
| 1778075654 | 22.78° C | 87% | 1020.6 hPa | 0 mm | - | 392 W/m² | - |
| 1778075350 | 22.78° C | 86% | 1020.6 hPa | 0 mm | - | 359 W/m² | - |
| 1778075046 | 22.78° C | 89% | 1020.3 hPa | 0 mm | - | 365 W/m² | - |
| 1778074743 | 22.22° C | 87% | 1020.3 hPa | 0 mm | - | 290 W/m² | - |
| 1778074440 | 22.22° C | 88% | 1020.3 hPa | 0 mm | - | 296 W/m² | - |
| 1778074137 | 21.67° C | 88% | 1020.3 hPa | 0 mm | - | 247 W/m² | - |
| 1778073834 | 21.67° C | 89% | 1020.3 hPa | 0 mm | - | 273 W/m² | - |
| 1778073532 | 21.67° C | 89% | 1020.3 hPa | 0 mm | - | 298 W/m² | - |
| 1778073228 | 21.11° C | 90% | 1020.3 hPa | 0 mm | - | 308 W/m² | - |
| 1778072926 | 20.56° C | 90% | 1020.3 hPa | 0 mm | - | 248 W/m² | - |
| 1778072622 | 20° C | 93% | 1020.3 hPa | 0 mm | - | 261 W/m² | - |
| 1778072320 | 20° C | 93% | 1020.3 hPa | 0 mm | - | 234 W/m² | - |
| 1778072018 | 19.44° C | 95% | 1020.3 hPa | 0 mm | - | 220 W/m² | - |
| 1778071716 | 18.89° C | 96% | 1020.3 hPa | 0 mm | - | 225 W/m² | - |
| 1778071412 | 18.89° C | 98% | 1020.3 hPa | 0 mm | - | 187 W/m² | - |
| 1778071110 | 18.89° C | 99% | 1020.3 hPa | 0 mm | - | 186 W/m² | - |
| 1778070808 | 18.33° C | 99% | 1020 hPa | 0 mm | - | 178 W/m² | - |
| 1778070505 | 18.33° C | 99% | 1020 hPa | 0 mm | - | 199 W/m² | - |
| 1778070202 | 17.78° C | 99% | 1020 hPa | 0 mm | - | 180 W/m² | - |
| 1778069901 | 17.78° C | 99% | 1020 hPa | 0 mm | - | 132 W/m² | - |
| 1778069597 | 17.78° C | 99% | 1020 hPa | 0 mm | - | 124 W/m² | - |
| 1778069294 | 17.78° C | 99% | 1020 hPa | 0 mm | - | 129 W/m² | - |
| 1778068992 | 17.78° C | 99% | 1019.6 hPa | 0 mm | - | 129 W/m² | - |
* Rain latest hour (hover to see other rain measurements)
** Current wind speed in m/s (hover to see current wind gust speed)